Starlink 4683

operational
NORAD ID: 53712 Int'l Des: 2022-107 Owner: SPXS Country: US Constellation: starlink
LEOCIRCULAR

Starlink 4683について

説明を読み込み中...

リアルタイム位置

3D地球を読み込み中...

次回通過

高度履歴

Altitude vs Time

uPlot chart will show altitude changes over time

軌道要素

1 53712U 22107N 25354.42066845 .00003570 00000-0 24225-3 0 9997
2 53712 53.2161 244.5200 0001428 79.6737 280.4416 15.08847057182538
Epoch: Dec 20, 2025 • Age: 14 hours

現在のステータス

高度 544.5 km
速度 7.59 km/s
衛星直下点 -17.00°S, 134.24°E
打ち上げ日 Sep 5, 2022
運用期間 3.2 years
タイプ internet

技術仕様

分類 Payload
質量 305.00 kg
乾燥質量 290.00 kg
総質量 305.00 kg
長さ 0.20 m
直径 2.80 m
スパン 9.00 m
形状 Box + pan
製造者 SPXS
バスタイプ Starlink
フェーズステータス In Orbit
所有者/国 SPXS/US

大規模コンステレーション

Loading constellations...